Location: Gleizolles
(44.4833°N, 6.7667°E)
Time: 08:48:24
(UTC+00:00)

M-CUBED/EXP-1 PRIME - Visible Passes

Search period start: 27 November 2022 00:00
Search period end: 07 December 2022 00:00
Orbit: 419 x 617 km, 101.7° (Epoch: 26 November)

Date Brightness Start Highest point End Pass type
(mag) Time Alt. Az. Time Alt. Az. Time Alt. Az.
27 Nov ? 05:28:03 10° SE 05:31:33 33° ENE 05:35:16 10° N visible
28 Nov ? 05:14:24 10° ESE 05:17:34 24° ENE 05:20:53 10° N visible
29 Nov ? 05:00:59 10° E 05:03:36 17° ENE 05:06:19 10° NNE visible
30 Nov ? 04:47:56 10° ENE 04:49:39 12° NE 04:51:23 10° NNE visible
01 Dec ? 06:04:32 10° SSE 06:08:27 69° ENE 06:12:37 10° NNW visible
02 Dec ? 05:50:30 10° SE 05:54:19 45° ENE 05:58:21 10° N visible
03 Dec ? 05:36:37 10° SE 05:40:11 31° ENE 05:43:57 10° N visible
04 Dec ? 05:22:54 10° ESE 05:26:06 22° ENE 05:29:24 10° N visible
05 Dec ? 05:09:27 10° E 05:12:01 16° NE 05:14:40 10° NNE visible
06 Dec ? 04:56:27 10° ENE 04:57:57 12° NE 04:59:28 10° NNE visible
